Miscellaneous Local Product
Issued by NWS North Platte, NE

Home | Current Version | Previous Version | Graphics & Text | Print | Product List | Glossary On
Versions: 1 2 3 4 5 6 7 8 9 10 11 12 13 14 15 16 17 18 19 20 21 22 23 24 25 26 27 28 29 30 31 32 33 34 35 36 37 38 39 40 41 42 43 44 45 46 47 48 49 50
000
AXUS43 KLBF 182210
MISLBF


WESTERN AND NORTH CENTRAL NEBRASKA HOURLY WEATHER ROUNDUP
NATIONAL WEATHER SERVICE NORTH PLATTE NE
400 PM CST THU DEC 18 2014

***STATIONS NOT REPORTING VARIABLES SUCH AS SKY/WEATHER OR
PRESSURE ARE PROVIDED BY THE NEBRASKA DEPARTMENT OF
ROADS...RAWS...AND APRS NETWORKS...AND ARE NOT UNDER
NATIONAL WEATHER SERVICE QUALITY CONTROL***

...OBSERVATIONS IN AND NEAR THE EASTERN PANHANDLE OF NEBRASKA...

CITY           SKY/WX    TMP DP  RH WIND       PRES   REMARKS
PINE RIDGE     SUNNY     37  24  59 W7        30.01S WCI  32
CHADRON        SUNNY     36  24  62 SW6       30.01S WCI  31
ALLIANCE       SUNNY     30  25  81 W5        30.00S WCI  25
SIDNEY         MOSUNNY   39  26  59 MISG      30.03R
WHITECLAY        N/A     36  20  52 W3          N/A
CRESCENT LAKE    N/A     35  28  76 SW6         N/A  WCI  30
LISCO            N/A     25  16  68 W6          N/A  WCI  18
BIG SPRINGS      N/A     33  28  81 SW6         N/A  WCI  27
$$

...OBSERVATIONS IN NORTH CENTRAL NEBRASKA...

CITY           SKY/WX    TMP DP  RH WIND       PRES   REMARKS
VALENTINE      CLEAR     26  22  84 S5        30.04S WCI  20
THEDFORD       CLEAR     32  26  80 W6        30.04S WCI  26
AINSWORTH      CLOUDY    27  25  92 SW6       30.05S FOG     WCI  20
O`NEILL        CLOUDY    28  26  92 SW3       30.12R
BROKEN BOW     CLOUDY    30  27  88 SW7       30.08S WCI  23
BROWNLEE         N/A     27  25  93 CALM        N/A
SPRINGVIEW       N/A     29  25  83 CALM        N/A
BREWSTER         N/A     32  28  86 W5          N/A  WCI  27
ROSE             N/A     30  30 100 MISG        N/A
SARGENT          N/A     29  26  89 SW3         N/A
COMSTOCK         N/A     33  29  86 SW3         N/A
CHAMBERS         N/A     28  23  81 CALM        N/A
$$

...OBSERVATIONS IN SOUTHWEST NEBRASKA AND FAR NORTHEAST COLORADO...

CITY           SKY/WX    TMP DP  RH WIND       PRES   REMARKS
WRAY           FAIR      30  27  88 CALM      30.05S FOG
IMPERIAL       PTSUNNY   29  25  85 CALM      30.07R
OGALLALA       SUNNY     30  25  81 CALM      30.05S
NORTH PLATTE   CLOUDY    28  25  88 W8        30.08R FOG     WCI  20
MCCOOK         CLOUDY    29  26  89 SW3       30.10S
LEXINGTON      CLOUDY    30  27  87 W5        30.11S WCI  25
PAXTON           N/A     29  26  89 CALM        N/A
BRADY            N/A     28  25  88 CALM        N/A
GOTHENBURG       N/A     29  25  85 W3          N/A
CALLAWAY         N/A     27  26  96 W3          N/A
$$

...NORTH PLATTE AREA...

CITY           SKY/WX    TMP DP  RH WIND       PRES   REMARKS
AIRPORT        CLOUDY    28  25  88 W8        30.08R FOG     WCI  20
$$

...SOME WEATHER OBSERVATIONS FROM AROUND THE REGION...

CITY           SKY/WX    TMP DP  RH WIND       PRES   REMARKS
DENVER         MOSUNNY   43  26  51 CALM      30.00R
LARAMIE        PTSUNNY   29  19  66 NE7       30.00S WCI  22
CHEYENNE       PTSUNNY   39  14  36 W10       30.00R WCI  32
SCOTTSBLUFF    MOSUNNY   19  16  88 CALM      30.03R
RAPID CITY     CLEAR     43  29  57 E6        29.97R
PIERRE         CLOUDY    29  24  82 S10       30.06R WCI  20
WINNER         CLOUDY    31  24  75 SW5       30.07S WCI  26
SIOUX FALLS    CLOUDY    26  22  84 S7        30.17S WCI  18
OMAHA          CLOUDY    31  26  82 SE6       30.22R WCI  25
GRAND ISLAND   CLOUDY    29  25  85 CALM      30.16R
KANSAS CITY    CLOUDY    32  28  85 E5        30.19S WCI  27
WICHITA        CLOUDY    35  29  78 N8        30.17R WCI  29
HAYS           CLOUDY    34  23  64 CALM      30.14S
LIBERAL        CLOUDY    36  30  80 NE5       30.12S WCI  32
GOODLAND       SUNNY     42  29  59 NW6       30.05S
$$



USA.gov is the U.S. government's official web portal to all federal, state and local government web resources and services.